map of PVK home
PVK - Airport
Location
City:  Preveza/Lefkada, Dytikí Elláda (Western Greece), Greece
Near (Alt.):Lefkas
Name:Aktion National
ICAO:LGPZ
IATA:PVK

Details
Type:Airport (Aerodrome, Airfield)
Use:Military
Latitude:38°55'32"N (38.925467)
Longitude:20°45'55"E (20.765311)
Datum:WGS 1984
Elevation:11 ft (3 m)
Variation:4.27°E (WMM2015 magnetic declination)
0.10° annual change
Runways:1
Longest:9419 × 148 ft (2871 × 45 m), paved

Time
Time Zone:UTC+2 (DST+3)
Local Time:

Weather
METAR:LGPZ 201420Z VRB03KT 9999 FEW020 SCT070 12/10 Q1015
TAF:LGPZ 201100Z 2012/2112 VRB05KT 9999 FEW015 SCT020 BKN070 PROB40
TEMPO 2012/2018 5000 RA SCT010 SCT018TCU BKN020
BECMG 2020/2022 09012KT SCT020 SCT070

Related Locations
Nearby:
Farthest:CHT: 11486 mi / 18484 km
Waitangi [Tuuta], CIT, NZ

Find:

   beyond  
but within

Other Information
Maps:
NOTAMs:
Links:
Sources:

  
  • flag of Greece
  

Sectional Chart

Flight Planning
at skyvector.com

Satellite Image

Google Maps Satellite view

 

Copyright © 2004-2019 Karl L. Swartz. All rights reserved.
The Great Circle Mapper name and logo are trademarks of the Great Circle Mapper.
All other trademarks mentioned herein belong to their respective owners.
Please see credits for attibutions and further copyright information.

  Follow gcmap on Facebook Follow gcmap on Twitter Follow gcmap on Google+ GCmap on LinkedIn

hCard Microformat

Geo Microformat